FW1203 Weather Reports


Display with metric or nautical units.
time (UTC)temp
F
wind
direction
speed
MPH
gust
MPH
rain 1hr
in
rain 24hr
in
rain mn
in
humidity
%
barometer
mb
20260503005833 49 0 0.0 0.0 0.00 0.00 0.00 71 1015.2
20260503005333 49 0 0.0 0.0 0.00 0.00 0.00 70 1015.2
20260503004833 50 0 0.0 0.0 0.00 0.00 0.00 70 1015.2
20260503004333 50 0 0.0 0.0 0.00 0.00 0.00 69 1015.2
20260503003833 50 0 0.0 0.0 0.00 0.00 0.00 69 1015.3
20260503003333 50 0 0.0 0.0 0.00 0.00 0.00 68 1015.4
20260503002833 51 0 0.0 0.0 0.00 0.00 0.00 68 1015.3
20260503002333 51 0 0.0 0.0 0.00 0.00 0.00 67 1015.5
20260503001833 51 0 0.0 0.0 0.00 0.00 0.00 67 1015.4
20260503000833 51 0 0.0 0.0 0.00 0.00 0.00 66 1015.4
20260503000333 51 0 0.0 0.0 0.00 0.00 0.00 66 1015.3
20260502235833 51 209 0.0 2.0 0.00 0.00 0.00 65 1015.4
20260502235333 51 209 0.0 2.0 0.00 0.00 0.00 65 1015.4
20260502234833 51 157 0.0 1.0 0.00 0.00 0.00 64 1015.5
20260502234333 52 157 0.0 1.0 0.00 0.00 0.00 63 1015.5
20260502233833 52 157 0.0 1.0 0.00 0.00 0.00 62 1015.7
20260502233333 52 157 0.0 1.0 0.00 0.00 0.00 62 1015.8
20260502232833 52 157 0.0 2.0 0.00 0.00 0.00 62 1015.8
20260502232333 52 156 0.0 2.0 0.00 0.00 0.00 61 1015.8
20260502231833 52 170 0.0 3.0 0.00 0.00 0.00 61 1015.9
20260502231333 52 167 0.0 3.0 0.00 0.00 0.00 60 1015.8
20260502230833 52 0 0.0 0.0 0.00 0.00 0.00 60 1015.9
20260502230333 52 0 0.0 0.0 0.00 0.00 0.00 61 1015.9
20260502225833 52 163 0.0 2.0 0.00 0.00 0.00 60 1016.0
20260502225333 52 163 0.0 3.0 0.00 0.00 0.00 60 1016.0
20260502224833 52 168 0.0 4.0 0.00 0.00 0.00 59 1016.0
20260502224333 52 161 1.0 4.0 0.00 0.00 0.00 59 1016.1
20260502223833 52 153 0.0 2.0 0.00 0.00 0.00 59 1016.1
20260502223333 53 157 0.0 2.0 0.00 0.00 0.00 58 1016.1
20260502222833 53 26 0.0 5.0 0.00 0.00 0.00 58 1016.1
20260502222333 53 151 0.0 5.0 0.00 0.00 0.00 58 1016.1
20260502221833 53 354 0.0 3.0 0.00 0.00 0.00 58 1016.1
20260502221333 53 104 0.0 3.0 0.00 0.00 0.00 57 1016.1
20260502220833 53 39 0.0 4.0 0.00 0.00 0.00 57 1016.1
20260502220333 53 162 1.0 4.0 0.00 0.00 0.00 55 1016.3
20260502215833 53 168 0.0 4.0 0.00 0.00 0.00 56 1016.2
20260502215333 54 165 1.0 4.0 0.00 0.00 0.00 56 1016.3
20260502214833 53 173 0.0 4.0 0.00 0.00 0.00 57 1016.2
20260502214333 53 163 1.0 4.0 0.00 0.00 0.00 56 1016.3
20260502213833 53 170 0.0 4.0 0.00 0.00 0.00 57 1016.4
20260502213333 53 167 1.0 4.0 0.00 0.00 0.00 55 1016.4
20260502212833 53 149 0.0 5.0 0.00 0.00 0.00 55 1016.4
20260502212333 53 163 1.0 5.0 0.00 0.00 0.00 57 1016.6
20260502211833 54 152 1.0 3.0 0.00 0.00 0.00 55 1016.5
20260502211333 54 158 0.0 2.0 0.00 0.00 0.00 53 1016.5
20260502210833 54 101 0.0 2.0 0.00 0.00 0.00 53 1016.6
20260502210333 54 339 0.0 2.0 0.00 0.00 0.00 53 1016.6
20260502205833 54 165 0.0 2.0 0.00 0.00 0.00 54 1016.6
20260502205333 54 145 0.0 5.0 0.00 0.00 0.00 53 1016.7
20260502204833 55 161 1.0 5.0 0.00 0.00 0.00 52 1016.8
20260502204333 55 159 2.0 4.0 0.00 0.00 0.00 50 1016.8
20260502203833 55 162 0.0 5.0 0.00 0.00 0.00 54 1016.8
20260502203333 54 184 1.0 5.0 0.00 0.00 0.00 52 1016.9
20260502202833 54 191 1.0 5.0 0.00 0.00 0.00 52 1016.9
20260502202333 54 89 0.0 5.0 0.00 0.00 0.00 53 1017.0
20260502201833 54 184 1.0 5.0 0.00 0.00 0.00 52 1017.2
20260502201333 54 173 1.0 4.0 0.00 0.00 0.00 52 1017.2
20260502200833 55 188 1.0 4.0 0.00 0.00 0.00 51 1017.3
20260502200333 54 155 1.0 4.0 0.00 0.00 0.00 53 1017.3
20260502195833 54 74 0.0 2.0 0.00 0.00 0.00 55 1017.3
20260502195333 54 55 0.0 2.0 0.00 0.00 0.00 54 1017.4
20260502194833 54 176 1.0 2.0 0.00 0.00 0.00 54 1017.5
20260502194333 54 35 1.0 4.0 0.00 0.00 0.00 54 1017.6
20260502193833 54 171 1.0 4.0 0.00 0.00 0.00 54 1017.6
20260502193333 54 132 1.0 4.0 0.00 0.00 0.00 56 1017.6
20260502192833 54 144 0.0 4.0 0.00 0.00 0.00 55 1017.7
20260502192333 54 155 1.0 4.0 0.00 0.00 0.00 56 1017.7
20260502191833 53 122 1.0 3.0 0.00 0.00 0.00 58 1017.9
20260502191333 52 136 0.0 4.0 0.00 0.00 0.00 60 1018.0
20260502190833 51 171 1.0 5.0 0.00 0.00 0.00 61 1018.1
20260502190333 51 184 0.0 5.0 0.00 0.00 0.00 58 1018.2
20260502185833 51 130 1.0 4.0 0.00 0.00 0.00 55 1018.2
20260502185333 51 48 0.0 4.0 0.00 0.00 0.00 58 1018.3
20260502184833 51 179 0.0 4.0 0.00 0.00 0.00 57 1018.3
20260502184333 52 163 0.0 4.0 0.00 0.00 0.00 56 1018.3
20260502183833 52 149 0.0 3.0 0.00 0.00 0.00 55 1018.5
20260502183333 52 166 0.0 3.0 0.00 0.00 0.00 56 1018.5
20260502182833 52 156 0.0 5.0 0.00 0.00 0.00 56 1018.5
20260502182333 52 116 1.0 5.0 0.00 0.00 0.00 55 1018.5
20260502181833 52 116 1.0 4.0 0.00 0.00 0.00 54 1018.4
20260502181333 52 118 1.0 5.0 0.00 0.00 0.00 56 1018.6
20260502180833 52 171 1.0 5.0 0.00 0.00 0.00 55 1018.6
20260502180333 52 160 0.0 6.0 0.00 0.00 0.00 52 1018.6
20260502170333 54 188 1.0 4.0 0.00 0.00 0.00 53 1019.0
20260502164333 53 85 0.0 3.0 0.00 0.00 0.00 48 1019.4
20260502163833 53 170 1.0 4.0 0.00 0.00 0.00 55 1019.3
20260502163333 53 167 1.0 4.0 0.00 0.00 0.00 55 1019.4
20260502162833 53 123 1.0 4.0 0.00 0.00 0.00 55 1019.4
20260502162333 53 150 1.0 5.0 0.00 0.00 0.00 50 1019.4
20260502161833 53 170 1.0 5.0 0.00 0.00 0.00 53 1019.4
20260502161333 53 173 0.0 5.0 0.00 0.00 0.00 55 1019.5
20260502160833 52 193 1.0 6.0 0.00 0.00 0.00 52 1019.5
20260502160333 52 184 0.0 7.0 0.00 0.00 0.00 54 1019.6
20260502152333 51 270 1.0 4.0 0.00 0.00 0.00 49 1019.6
20260502151833 51 44 0.0 1.0 0.00 0.00 0.00 51 1019.6
20260502151333 51 44 0.0 1.0 0.00 0.00 0.00 49 1019.6
20260502150833 51 44 0.0 1.0 0.00 0.00 0.00 52 1019.6
20260502150333 51 44 0.0 1.0 0.00 0.00 0.00 51 1019.6
20260502130333 39 258 0.0 1.0 0.00 0.00 0.00 93 1019.7
20260502123333 35 0 0.0 0.0 0.00 0.00 0.00 97 1019.6
20260502122833 35 0 0.0 0.0 0.00 0.00 0.00 96 1019.6
20260502122333 34 0 0.0 0.0 0.00 0.00 0.00 96 1019.6
20260502121833 33 0 0.0 0.0 0.00 0.00 0.00 96 1019.6
20260502121333 33 0 0.0 0.0 0.00 0.00 0.00 96 1019.6
20260502120833 32 0 0.0 0.0 0.00 0.00 0.00 95 1019.6
20260502120333 31 0 0.0 0.0 0.00 0.00 0.00 95 1019.5
20260502115833 31 0 0.0 0.0 0.00 0.00 0.00 94 1019.4
20260502115333 31 0 0.0 0.0 0.00 0.00 0.00 94 1019.4
20260502114833 31 0 0.0 0.0 0.00 0.00 0.00 94 1019.4
20260502113833 31 0 0.0 0.0 0.00 0.00 0.00 94 1019.3
20260502113333 31 0 0.0 0.0 0.00 0.00 0.00 94 1019.3
20260502112833 30 0 0.0 0.0 0.00 0.00 0.00 93 1019.2
20260502112333 30 0 0.0 0.0 0.00 0.00 0.00 93 1019.1
20260502111833 30 0 0.0 0.0 0.00 0.00 0.00 93 1019.2
20260502111333 30 0 0.0 0.0 0.00 0.00 0.00 93 1019.1
20260502110833 30 0 0.0 0.0 0.00 0.00 0.00 93 1019.0
20260502110333 30 0 0.0 0.0 0.00 0.00 0.00 93 1019.0
20260502105833 30 0 0.0 0.0 0.00 0.00 0.00 93 1019.0
20260502105333 30 0 0.0 0.0 0.00 0.00 0.00 93 1019.0
20260502104833 30 0 0.0 0.0 0.00 0.00 0.00 93 1019.0
20260502104333 30 0 0.0 0.0 0.00 0.00 0.00 93 1019.0
20260502103833 30 0 0.0 0.0 0.00 0.00 0.00 93 1019.0
20260502103333 30 0 0.0 0.0 0.00 0.00 0.00 93 1019.0
20260502102833 30 0 0.0 0.0 0.00 0.00 0.00 93 1019.0
20260502102333 30 0 0.0 0.0 0.00 0.00 0.00 93 1019.0
20260502101833 30 0 0.0 0.0 0.00 0.00 0.00 93 1019.0
20260502101333 30 0 0.0 0.0 0.00 0.00 0.00 93 1018.9
20260502100833 30 0 0.0 0.0 0.00 0.00 0.00 93 1019.0
20260502100333 30 0 0.0 0.0 0.00 0.00 0.00 93 1019.0
20260502091333 31 0 0.0 0.0 0.00 0.01 0.00 92 1019.0
20260502090833 31 0 0.0 0.0 0.00 0.01 0.00 92 1019.0
20260502090333 31 0 0.0 0.0 0.00 0.01 0.00 92 1018.9
20260502071333 32 0 0.0 0.0 0.00 0.01 0.00 91 1019.0
20260502070833 32 0 0.0 0.0 0.00 0.01 0.00 91 1019.0
20260502070333 32 0 0.0 0.0 0.00 0.01 0.00 90 1019.1
20260502065833 32 0 0.0 0.0 0.00 0.01 0.00 91 1019.0
20260502065333 32 0 0.0 0.0 0.00 0.01 0.00 90 1019.1
20260502064833 32 0 0.0 0.0 0.00 0.01 0.00 90 1019.1
20260502064333 32 0 0.0 0.0 0.00 0.01 0.00 90 1019.1
20260502063833 32 0 0.0 0.0 0.00 0.01 0.00 90 1019.1
20260502063333 32 0 0.0 0.0 0.00 0.02 0.00 90 1019.3
20260502062833 32 0 0.0 0.0 0.00 0.02 0.00 90 1019.3
20260502062333 32 0 0.0 0.0 0.00 0.02 0.00 89 1019.3
20260502061833 32 0 0.0 0.0 0.00 0.02 0.00 89 1019.3
20260502061333 32 0 0.0 0.0 0.00 0.02 0.00 89 1019.3
20260502060833 33 0 0.0 0.0 0.00 0.02 0.00 89 1019.4
20260502060333 33 0 0.0 0.0 0.00 0.02 0.00 89 1019.4
20260502055833 33 0 0.0 0.0 0.00 0.02 0.00 89 1019.3
20260502055333 33 0 0.0 0.0 0.00 0.02 0.00 89 1019.3
20260502054833 33 0 0.0 0.0 0.00 0.02 0.00 88 1019.4
20260502054333 33 0 0.0 0.0 0.00 0.02 0.00 88 1019.4
20260502053833 33 0 0.0 0.0 0.00 0.02 0.00 88 1019.4
20260502053333 33 0 0.0 0.0 0.00 0.03 0.00 87 1019.4
20260502052833 33 0 0.0 0.0 0.00 0.03 0.00 87 1019.4
20260502052333 33 0 0.0 0.0 0.00 0.03 0.00 87 1019.4
20260502051833 33 0 0.0 0.0 0.00 0.03 0.00 87 1019.4
20260502051333 33 0 0.0 0.0 0.00 0.03 0.00 87 1019.3
20260502050833 33 0 0.0 0.0 0.00 0.04 0.00 86 1019.3
20260502050333 34 0 0.0 0.0 0.00 0.04 0.00 86 1019.3
20260502045833 34 0 0.0 0.0 0.00 0.04 0.00 86 1019.3
20260502045333 34 0 0.0 0.0 0.00 0.04 0.00 86 1019.3
20260502044833 34 0 0.0 0.0 0.00 0.04 0.00 85 1019.3
20260502044333 34 0 0.0 0.0 0.00 0.04 0.00 85 1019.2
20260502043833 34 0 0.0 0.0 0.00 0.04 0.00 84 1019.3
20260502043333 34 0 0.0 0.0 0.00 0.04 0.00 84 1019.3
20260502042833 34 0 0.0 0.0 0.00 0.04 0.00 84 1019.2
20260502042333 35 0 0.0 0.0 0.00 0.04 0.00 84 1019.1
20260502041833 35 0 0.0 0.0 0.00 0.04 0.00 83 1019.1
20260502041333 35 0 0.0 0.0 0.00 0.04 0.00 83 1019.1
20260502040833 35 0 0.0 0.0 0.00 0.04 0.00 82 1019.1
20260502040333 35 0 0.0 0.0 0.00 0.04 0.00 82 1019.1
20260502035833 36 0 0.0 0.0 0.00 0.04 0.00 81 1019.1
20260502035333 36 0 0.0 0.0 0.00 0.04 0.00 81 1019.1
20260502034833 36 0 0.0 0.0 0.00 0.05 0.00 80 1019.0
20260502034333 36 0 0.0 0.0 0.00 0.05 0.00 80 1019.0
20260502033833 36 0 0.0 0.0 0.00 0.05 0.00 79 1019.0
20260502033333 37 0 0.0 0.0 0.00 0.05 0.00 78 1018.9
20260502032833 37 0 0.0 0.0 0.00 0.05 0.00 78 1018.9
20260502032333 37 0 0.0 0.0 0.00 0.05 0.00 78 1018.9
20260502031833 37 0 0.0 0.0 0.00 0.05 0.00 77 1018.9
20260502030833 38 0 0.0 0.0 0.00 0.06 0.00 76 1018.9
20260502030333 38 0 0.0 0.0 0.00 0.06 0.00 76 1018.9
20260502025833 38 0 0.0 0.0 0.00 0.06 0.00 74 1018.9
20260502025333 38 0 0.0 0.0 0.00 0.06 0.00 74 1018.8
20260502024833 38 0 0.0 0.0 0.00 0.06 0.00 73 1018.7
20260502024333 38 0 0.0 0.0 0.00 0.06 0.00 73 1018.8
20260502023833 39 0 0.0 0.0 0.00 0.06 0.00 72 1018.8
20260502023333 39 0 0.0 0.0 0.00 0.06 0.00 72 1018.8
20260502022833 39 0 0.0 0.0 0.00 0.06 0.00 72 1018.7
20260502022333 39 0 0.0 0.0 0.00 0.06 0.00 72 1018.7
20260502021833 39 0 0.0 0.0 0.00 0.06 0.00 71 1018.7
20260502021333 39 0 0.0 0.0 0.00 0.06 0.00 71 1018.6
20260502020833 40 0 0.0 0.0 0.00 0.06 0.06 71 1018.5
20260502020333 40 0 0.0 0.0 0.00 0.06 0.06 70 1018.5
20260502015833 40 0 0.0 0.0 0.00 0.06 0.06 69 1018.5
20260502015333 40 0 0.0 0.0 0.00 0.06 0.06 70 1018.4
20260502014833 40 0 0.0 0.0 0.00 0.06 0.06 69 1018.4
20260502014333 40 0 0.0 0.0 0.00 0.06 0.06 69 1018.4
20260502013833 40 0 0.0 0.0 0.00 0.06 0.06 68 1018.4
20260502013333 41 259 0.0 2.0 0.00 0.06 0.06 68 1018.4
20260502012833 41 259 0.0 2.0 0.00 0.06 0.06 68 1018.3
20260502012333 41 360 0.0 1.0 0.00 0.06 0.06 68 1018.3
20260502011833 41 0 0.0 0.0 0.00 0.06 0.06 68 1018.3
20260502011333 41 265 0.0 3.0 0.00 0.06 0.06 68 1018.2
20260502010833 41 265 0.0 3.0 0.00 0.06 0.06 68 1018.2
20260502010333 41 209 0.0 1.0 0.00 0.06 0.06 69 1018.2